Skip Page Navigation
NASA JPL Caltech
NASA Logo - Jet Propulsion Laboratory + View the NASA Portal
+ Center for Near-Earth Object Studies
JPL Home Earth Solar System Stars & Galaxies Technology
JPL Solar System Dynamics
BODIES ORBITS EPHEMERIDES TOOLS PHYSICAL DATA DISCOVERY FAQ SITE MAP
JPL Small-Body Database Browser
Search: [ help ]  
4166 Pontryagin (1978 SZ6)
Classification: Main-belt Asteroid          SPK-ID: 2004166
Ephemeris | Orbit Diagram | Orbital Elements | Mission Design | Physical Parameters | Discovery Circumstances | Close-Approach Data ]

[ show orbit diagram ]
Orbital Elements at Epoch 2459000.5 (2020-May-31.0) TDB
Reference: JPL 35 (heliocentric ecliptic J2000)
 Element Value Uncertainty (1-sigma)   Units 
e .029472362841749 2.8547e-08  
a 2.60773764748137 9.1072e-09 au
q 2.53088145733871 7.7281e-08 au
i 3.107507655440328 3.6904e-06 deg
node 311.2748392723734 7.4578e-05 deg
peri 126.0882441475198 0.00011396 deg
M 259.6655244709443 8.5066e-05 deg
tp 2459429.188621416945
(2021-Aug-02.68862142)
0.00036351 TDB
period 1538.134354082596
4.21
8.0576e-06
2.206e-08
d
yr
n .2340497753297489 1.2261e-09 deg/d
Q 2.684593837624031 9.3756e-09 au
  Orbit Determination Parameters
   # obs. used (total)      2496  
   data-arc span      23929 days (65.51 yr)  
   first obs. used      1955-04-20  
   last obs. used      2020-10-24  
   planetary ephem.      DE431  
   SB-pert. ephem.      SB431-N16  
   condition code      0  
   norm. resid. RMS      .43041  
   source      ORB  
   producer      Otto Matic  
   solution date      2020-Nov-13 03:53:51  

Additional Information
 Earth MOID = 1.54773 au 
 Jupiter MOID = 2.37848 au 
 T_jup = 3.409 
[ show covariance matrix ]

Ephemeris | Orbit Diagram | Orbital Elements | Mission Design | Physical Parameters | Discovery Circumstances | Close-Approach Data ]

Physical Parameter Table
Parameter Symbol Value Units Sigma Reference Notes
absolute magnitude H 12.8   n/a MPO448955  
diameter diameter 8.011 km 0.086 urn:nasa:pds:neowise_diameters_albedos::2.0[mainbelt] (http://adsabs.harvard.edu/abs/2011ApJ...741...68M)  
geometric albedo albedo 0.251   0.036 urn:nasa:pds:neowise_diameters_albedos::2.0[mainbelt] (http://adsabs.harvard.edu/abs/2011ApJ...741...68M)  

4166 Pontryagin (1978 SZ6)          Discovered 1978-Sep-26 by Zhuravleva, L. V. at Nauchnyj
Reference: DISCOVERY.DBLast Updated: 2003-08-29

[ show close-approach data ]
Alternate Designations
 1978 SZ6 = 1972 GD1 = 1986 RX4 
Ephemeris | Orbit Diagram | Orbital Elements | Mission Design | Physical Parameters | Discovery Circumstances | Close-Approach Data ]
ABOUT SSD CREDITS/AWARDS PRIVACY/COPYRIGHT GLOSSARY LINKS
FirstGov 2020-Dec-06 02:41 UT
(server date/time)  
NASA Home Page
Site Manager:   Ryan S. Park
Webmaster  Alan B. Chamberlin